Regional Weather Roundup
Issued by NWS Cleveland, OH

Home | Current Version | Previous Version | Text Only | Print | Product List | Glossary Off
Versions: 1 2 3 4 5 6 7 8 9 10 11 12 13 14 15 16 17 18 19 20 21 22 23 24 25 26 27 28 29 30 31 32 33 34 35 36 37 38 39 40 41 42 43 44 45 46 47 48 49 50

000
ASUS41 KCLE 181610
RWRCLE
OHIO REGIONAL WEATHER ROUNDUP
NATIONAL WEATHER SERVICE CLEVELAND, OH
1200 PM EDT FRI AUG 18 2017

NOTE: "FAIR" INDICATES FEW OR NO CLOUDS BELOW 12,000 FEET WITH NO
SIGNIFICANT WEATHER AND/OR OBSTRUCTIONS TO VISIBILITY.

OHZ001>008-015>018-024>027-034-035-043-044-181700-
   NORTHWEST OHIO

CITY           SKY/WX    TMP DP  RH WIND       PRES   REMARKS
DEFIANCE       CLOUDY    74  63  68 W8        29.84R
FINDLAY        MOSUNNY   80  64  58 W18       29.84R
TOLEDO EXPRESS CLOUDY    75  65  70 W18       29.82R
TOLEDO EXEC    CLOUDY    78  64  61 W20G29    29.82R
LIMA           MOSUNNY   78  65  63 W15G22    29.87R
$$

OHZ009>014-019>023-028>033-038-089-181700-
   NORTHEAST OHIO

CITY           SKY/WX    TMP DP  RH WIND       PRES   REMARKS
CLE-HOPKINS    MOSUNNY   83  63  50 W16G25    29.82F
CLE-LAKEFRONT  MOSUNNY   83  63  50 W13       29.79F
CUY CO. ARPT   NOT AVBL
LORAIN-ELYRIA  MOSUNNY   78  61  55 W14G20    29.82S
ASHTABULA      MOSUNNY   80  67  64 W13G22    29.82R
AKRON-CANTON   PTSUNNY   82  60  47 W21       29.84S
WOOSTER        MOSUNNY   79  65  62 W9        29.85S
MANSFIELD      MOSUNNY   79  63  57 SW15      29.86S
YOUNGSTOWN     PTSUNNY   80  65  59 W10       29.83F
$$

OHZ042-051>053-060>062-070>072-077>081-181700-
  SOUTHWEST OHIO

CITY           SKY/WX    TMP DP  RH WIND       PRES   REMARKS
CINC-COVINGTON PTSUNNY   81  68  64 W10       29.93R
CINC-LUNKEN    MOSUNNY   81  66  60 W9        29.91S
HAMILTON       MOSUNNY   82  68  62 W8        29.92R
DAYTON         MOSUNNY   79  64  60 W14       29.91S
WRIGHT-PAT AFB MOSUNNY   80  67  64 SW12G20   29.89R
DAYTON GENERAL SUNNY     79  64  60 W10       29.90S
WILMINGTON     MOSUNNY   79  66  64 W14G21    29.91R
$$

OHZ036-037-039>041-045>050-054>059-063>069-073>076-082>088-181700-
  CENTRAL AND SOUTHEAST OHIO

CITY           SKY/WX    TMP DP  RH WIND       PRES   REMARKS
COLUMBUS       MOSUNNY   82  65  56 W15       29.87S
OSU AIRPORT    MOSUNNY   80  68  66 W15G22    29.88R
BOLTON FIELD   MOSUNNY   81  66  61 W10G18    29.89R
RICKENBACK AFB MOSUNNY   80  68  67 W14       29.88S
NEWARK         PTSUNNY   81  66  60 W12       29.87S
MARION         MOSUNNY   79  64  60 W10       29.86S
LANCASTER      MOSUNNY   81  69  67 W13       29.89S
ZANESVILLE     PTSUNNY   80  68  66 W12       29.87S
NEW PHILLY     NOT AVBL
$$




USA.gov is the U.S. government's official web portal to all federal, state and local government web resources and services.